View from above orbital plane
|
View from above satellite
|
Ground track
|
The orbit data is extracted from the following two-line orbital elements,
1 35938U 09052B 20366.15708110 0.00000000 00000-0 00000-0 0 07
2 35938 57.9929 127.5812 0012576 182.0743 177.9257 12.79341716 02
Epoch (UTC): | 31 December 2020 03:46:11 |
Eccentricity: | 0.0012576 |
inclination: | 57.9929° |
perigee height: | 1334 km |
apogee height: | 1354 km |
right ascension of ascending node: | 127.5812° |
argument of perigee: | 182.0743° |
revolutions per day: | 12.79341716 |
mean anomaly at epoch: | 177.9257° |
orbit number at epoch: | 0 |
The dashed part of the orbit path shows where the satellite is in the earth's shadow,
|
|